Weather History for LIRN - February, 2014

Change the Weather History Date:

Friday, February 7, 2014

  Actual Average Record
Temperature  
Mean Temperature 50 °F -  
Max Temperature 60 °F 57 °F 64 °F (2001)
Min Temperature 40 °F 41 °F 30 °F (2003)
Degree Days  
Heating Degree Days 15    
Moisture  
Dew Point 46 °F    
Average Humidity 79    
Maximum Humidity 100    
Minimum Humidity 61    
Precipitation  
Precipitation 0.00 in 0.12 in - ()
Sea Level Pressure  
Sea Level Pressure 30.04 in    
Wind  
Wind Speed 3 mph ()    
Max Wind Speed 12 mph    
Max Gust Speed -    
Visibility 6.8 miles    
Events      
Averages and records for this station are not official NWS values.
T = Trace of Precipitation, MM = Missing Value Source: Averaged Metar Reports

Daily Weather History Graph

Daily Weather History Graph

Search for Another Location

Airport or City:

Trip Planner

Search our weather history database for the weather conditions in past years. The results will help you decide how hot, cold, wet, or windy it might be!

Date:

Astronomy

Feb. 07, 2014 Rise Set
Actual Time 7:07 AM CET 5:27 PM CET
Civil Twilight 6:38 AM CET 5:55 PM CET
Nautical Twilight 6:05 AM CET 6:28 PM CET
Astronomical Twilight 5:33 AM CET 7:00 PM CET
Moon 11:26 AM CET (2/7) 1:06 AM CET (2/7)
Length of Visible Light 11h 17m
Length of Day
10h 20m
First Quarter, 56% of the Moon is Illuminated
Feb 7
First Quarter
Feb 15
Full
Feb 22
Last Quarter
Mar 1
New
Mar 8
First Quarter

Hourly Weather History & Observations

Time (CET) Temp. Windchill Dew Point Humidity Pressure Visibility Wind Dir Wind Speed Gust Speed Precip Events Conditions
12:20 AM 44.6 °F - 44.6 °F 100% 30.04 in - Variable 2.3 mph - N/A   Clear
12:50 AM 46.4 °F 45.2 °F 42.8 °F 87% 30.04 in - ENE 3.5 mph - N/A   Clear
1:00 AM 45 °F - 43 °F 90% 30.06 in 16 mi ENE 1.2 mph - -  
1:20 AM 42.8 °F - 41.0 °F 93% 30.04 in 5.0 mi NW 2.3 mph - N/A   Unknown
1:50 AM 44.6 °F - 42.8 °F 93% 30.06 in 5.0 mi Calm Calm - N/A   Unknown
2:20 AM 42.8 °F - 41.0 °F 93% 30.06 in 5.0 mi Calm Calm - N/A   Unknown
2:50 AM 42.8 °F - 42.8 °F 100% 30.06 in 5.0 mi Variable 1.2 mph - N/A   Unknown
3:20 AM 42.8 °F - 41.0 °F 93% 30.06 in 5.0 mi Variable 2.3 mph - N/A   Unknown
3:50 AM 44.6 °F - 42.8 °F 93% 30.04 in 5.0 mi Calm Calm - N/A   Unknown
4:00 AM 44 °F - 43 °F 96% 30.07 in 5 mi West 1.2 mph - -   Mist
4:20 AM 42.8 °F - 41.0 °F 93% 30.04 in 5.0 mi Calm Calm - N/A   Partly Cloudy
4:50 AM 44.6 °F - 42.8 °F 93% 30.06 in 5.0 mi West 2.3 mph - N/A   Partly Cloudy
5:20 AM 46.4 °F 45.2 °F 44.6 °F 93% 30.06 in 5.0 mi West 3.5 mph - N/A   Scattered Clouds
5:50 AM 44.6 °F - 42.8 °F 93% 30.06 in 5.0 mi North 2.3 mph - N/A   Partly Cloudy
6:20 AM 44.6 °F - 42.8 °F 93% 30.06 in 5.0 mi Variable 1.2 mph - N/A   Partly Cloudy
6:50 AM 42.8 °F 41.1 °F 41.0 °F 93% 30.06 in 5.0 mi NNE 3.5 mph - N/A   Partly Cloudy
7:00 AM 44 °F - 42 °F 89% 30.09 in 5 mi NNE 2.3 mph - -   Mist
7:20 AM 44.6 °F - 42.8 °F 93% 30.06 in 5.0 mi Calm Calm - N/A   Partly Cloudy
7:50 AM 42.8 °F - 41.0 °F 93% 30.06 in 6.2 mi Variable 1.2 mph - N/A   Partly Cloudy
8:20 AM 50.0 °F - 44.6 °F 82% 30.06 in 6.2 mi Calm Calm - N/A   Partly Cloudy
8:50 AM 55.4 °F - 48.2 °F 77% 30.09 in 6.2 mi Calm Calm - N/A   Partly Cloudy
9:20 AM 55.4 °F - 48.2 °F 77% 30.09 in - Variable 2.3 mph - N/A   Clear
9:50 AM 57.2 °F - 46.4 °F 67% 30.09 in 6.2 mi Variable 2.3 mph - N/A   Partly Cloudy
10:20 AM 59.0 °F - 46.4 °F 63% 30.09 in 6.2 mi South 4.6 mph - N/A   Partly Cloudy
10:50 AM 59.0 °F - 48.2 °F 67% 30.09 in 6.2 mi South 6.9 mph - N/A   Partly Cloudy
11:20 AM 59.0 °F - 48.2 °F 67% 30.09 in 6.2 mi South 8.1 mph - N/A   Partly Cloudy
11:50 AM 59.0 °F - 48.2 °F 67% 30.06 in 6.2 mi SSW 6.9 mph - N/A   Partly Cloudy
12:20 PM 59.0 °F - 48.2 °F 67% 30.06 in 6.2 mi SSW 10.4 mph - N/A   Scattered Clouds
12:50 PM 59.0 °F - 50.0 °F 72% 30.06 in 6.2 mi SSW 9.2 mph - N/A   Mostly Cloudy
1:00 PM 59 °F - 49 °F 61% 30.08 in 16 mi SSW 10.4 mph - -   Mostly Cloudy
1:20 PM 59.0 °F - 50.0 °F 72% 30.06 in 6.2 mi SW 10.4 mph - N/A   Mostly Cloudy
1:50 PM 59.0 °F - 50.0 °F 72% 30.06 in 6.2 mi SW 11.5 mph - N/A   Mostly Cloudy
2:20 PM 59.0 °F - 50.0 °F 72% 30.04 in 6.2 mi SSW 9.2 mph - N/A   Mostly Cloudy
3:20 PM 57.2 °F - 48.2 °F 72% 30.04 in 6.2 mi SSW 10.4 mph - N/A   Scattered Clouds
3:50 PM 57.2 °F - 48.2 °F 72% 30.04 in 6.2 mi South 9.2 mph - N/A   Partly Cloudy
4:00 PM 58 °F - 48 °F 62% 30.04 in 16 mi South 10.4 mph - -   Mostly Cloudy
4:20 PM 57.2 °F - 48.2 °F 72% 30.04 in 6.2 mi SSW 9.2 mph - N/A   Partly Cloudy
4:50 PM 57.2 °F - 48.2 °F 72% 30.04 in 6.2 mi SSW 9.2 mph - N/A   Partly Cloudy
5:20 PM 55.4 °F - 48.2 °F 77% 30.01 in 6.2 mi SSW 6.9 mph - N/A   Partly Cloudy
5:50 PM 55.4 °F - 48.2 °F 77% 30.01 in 6.2 mi South 6.9 mph - N/A   Partly Cloudy
6:20 PM 55.4 °F - 48.2 °F 77% 30.01 in 6.2 mi SSW 6.9 mph - N/A   Partly Cloudy
6:50 PM 55.4 °F - 48.2 °F 77% 30.01 in 6.2 mi SW 6.9 mph - N/A   Partly Cloudy
7:00 PM 56 °F - 48 °F 68% 30.04 in 16 mi SW 5.8 mph - -   Scattered Clouds
7:20 PM 57.2 °F - 48.2 °F 72% 30.01 in 6.2 mi SW 5.8 mph - N/A   Scattered Clouds
7:50 PM 55.4 °F - 48.2 °F 77% 30.01 in 6.2 mi WSW 2.3 mph - N/A   Scattered Clouds
8:20 PM 53.6 °F - 48.2 °F 82% 30.01 in 6.2 mi Variable 2.3 mph - N/A   Scattered Clouds
8:50 PM 53.6 °F - 48.2 °F 82% 30.01 in 6.2 mi Variable 1.2 mph - N/A   Scattered Clouds
9:20 PM 55.4 °F - 48.2 °F 77% 30.01 in 6.2 mi Variable 2.3 mph - N/A   Scattered Clouds
9:50 PM 55.4 °F - 46.4 °F 72% 30.01 in 6.2 mi Variable 1.2 mph - N/A   Scattered Clouds
10:00 PM 55 °F - 47 °F 68% 30.01 in 16 mi NW 2.3 mph - -   Scattered Clouds
10:20 PM 55.4 °F - 46.4 °F 72% 29.98 in 6.2 mi Calm Calm - N/A   Scattered Clouds
10:50 PM 55.4 °F - 44.6 °F 67% 29.98 in 6.2 mi Variable 3.5 mph - N/A   Scattered Clouds
11:20 PM 55.4 °F - 44.6 °F 67% 29.98 in 6.2 mi Variable 5.8 mph - N/A   Scattered Clouds
11:50 PM 57.2 °F - 44.6 °F 63% 29.98 in 6.2 mi South 4.6 mph - N/A   Scattered Clouds